GW5874 Weather Reports


time (UTC)temp
F
wind
direction
speed
knots
gust
knots
rain 1hr
in
rain 24hr
in
rain mn
in
humidity
%
barometer
mb
20260507043148 43 199 0.0 0.0 0.00 0.00 0.00 95 1018.5
20260507042644 43 199 0.0 0.0 0.00 0.00 0.00 95 1018.5
20260507042139 43 199 0.0 0.0 0.00 0.00 0.00 95 1018.5
20260507041637 43 199 0.0 0.0 0.00 0.00 0.00 95 1018.4
20260507041133 43 199 0.0 0.0 0.00 0.00 0.00 95 1018.4
20260507040630 43 199 0.0 0.0 0.00 0.00 0.00 94 1018.3
20260507040126 43 199 0.0 0.0 0.00 0.00 0.00 94 1018.5
20260507035622 43 199 0.0 0.0 0.00 0.00 0.00 94 1018.3
20260507035118 44 199 0.0 0.0 0.00 0.00 0.00 94 1018.1
20260507034615 44 199 0.0 0.0 0.00 0.00 0.00 93 1018.4
20260507034113 44 199 0.0 0.0 0.00 0.00 0.00 93 1018.3
20260507033611 44 199 0.0 0.0 0.00 0.00 0.00 93 1018.4
20260507033108 44 199 0.0 0.0 0.00 0.00 0.00 92 1018.1
20260507032605 44 199 0.0 0.0 0.00 0.00 0.00 92 1018.1
20260507032101 44 199 0.0 0.0 0.00 0.00 0.00 92 1018.0
20260507031558 44 199 0.0 0.0 0.00 0.00 0.00 92 1018.1
20260507031055 45 199 0.0 0.0 0.00 0.00 0.00 91 1018.0
20260507030551 44 199 0.0 0.0 0.00 0.00 0.00 91 1017.9
20260507030049 45 199 0.0 0.0 0.00 0.00 0.00 90 1017.9
20260507025546 45 199 0.0 0.0 0.00 0.00 0.00 90 1017.9
20260507025043 45 199 0.0 0.0 0.00 0.00 0.00 90 1017.9
20260507024541 45 199 0.0 0.0 0.00 0.00 0.00 89 1017.8
20260507024038 46 199 0.0 0.0 0.00 0.00 0.00 87 1017.9
20260507023533 46 199 0.0 0.0 0.00 0.00 0.00 87 1017.6
20260507023031 46 199 0.0 0.0 0.00 0.00 0.00 86 1017.7
20260507022528 47 199 0.0 0.0 0.00 0.00 0.00 86 1017.7
20260507022028 47 199 0.0 0.0 0.00 0.00 0.00 86 1017.6
20260507021525 47 199 0.0 0.0 0.00 0.00 0.00 85 1017.4
20260507021021 47 199 0.0 0.0 0.00 0.00 0.00 84 1017.6
20260507020519 48 199 0.0 0.0 0.00 0.00 0.00 84 1017.5
20260507020015 48 199 0.0 0.0 0.00 0.00 0.00 82 1017.4
20260507015514 48 199 0.0 0.0 0.00 0.00 0.00 81 1017.3
20260507015011 48 199 0.0 0.0 0.00 0.00 0.00 80 1017.2
20260507014507 49 160 0.0 0.9 0.00 0.00 0.00 79 1017.2
20260507014003 49 148 0.0 0.0 0.00 0.00 0.00 79 1017.2
20260507013500 50 308 0.0 0.9 0.00 0.00 0.00 78 1017.2
20260507012957 51 296 0.0 0.0 0.00 0.00 0.00 76 1017.3
20260507012454 51 296 0.0 0.0 0.00 0.00 0.00 76 1017.1
20260507011951 52 296 0.0 0.0 0.00 0.00 0.00 73 1017.1
20260507011448 52 296 0.0 0.0 0.00 0.00 0.00 71 1017.0
20260507010943 53 296 0.0 0.0 0.00 0.00 0.00 68 1016.9
20260507010438 53 297 0.0 0.0 0.00 0.00 0.00 65 1016.9
20260507005935 54 289 0.0 0.0 0.00 0.00 0.00 58 1016.8
20260507005433 55 281 0.0 0.0 0.00 0.00 0.00 57 1016.9
20260507004930 55 243 0.0 0.0 0.00 0.00 0.00 56 1016.6
20260507004426 56 275 0.0 0.0 0.00 0.00 0.00 51 1016.8
20260507003923 57 312 0.9 0.9 0.00 0.00 0.00 52 1016.7
20260507003418 57 355 0.0 0.9 0.00 0.00 0.00 50 1016.7
20260507002914 57 357 1.7 3.5 0.00 0.00 0.00 50 1016.7
20260507002410 57 247 1.7 2.6 0.00 0.00 0.00 49 1016.4
20260507001908 58 113 1.7 2.6 0.00 0.00 0.00 49 1016.7
20260507001404 58 24 1.7 4.3 0.00 0.00 0.00 51 1016.6
20260507000902 59 258 0.9 0.9 0.00 0.00 0.00 52 1016.6
20260507000357 59 40 0.9 0.9 0.00 0.00 0.00 48 1016.4
20260506235853 60 299 1.7 3.5 0.00 0.00 0.00 48 1016.5
20260506235350 60 204 0.0 0.9 0.00 0.00 0.00 49 1016.5
20260506234845 61 212 1.7 2.6 0.00 0.00 0.00 47 1016.4
20260506234344 62 283 1.7 2.6 0.00 0.00 0.00 46 1016.3
20260506233841 62 277 4.3 7.0 0.00 0.00 0.00 45 1016.1
20260506233337 61 320 3.5 4.3 0.00 0.00 0.00 46 1015.9
20260506232834 61 150 3.5 4.3 0.00 0.00 0.00 47 1016.1
20260506232330 61 174 2.6 4.3 0.00 0.00 0.00 48 1015.7
20260506231826 61 253 0.9 0.9 0.00 0.00 0.00 46 1015.7
20260506231324 62 185 3.5 6.1 0.00 0.00 0.00 48 1015.6
20260506230821 62 230 3.5 4.3 0.00 0.00 0.00 49 1015.6
20260506230318 61 239 5.2 8.7 0.00 0.00 0.00 46 1015.5
20260506225814 62 304 7.8 9.6 0.00 0.00 0.00 43 1015.4
20260506225312 62 288 1.7 3.5 0.00 0.00 0.00 46 1015.5
20260506224809 62 350 6.1 7.0 0.00 0.00 0.00 45 1015.4
20260506224306 62 322 1.7 2.6 0.00 0.00 0.00 46 1015.3
20260506223802 62 350 1.7 2.6 0.00 0.00 0.00 50 1015.4
20260506223257 62 9 4.3 6.1 0.00 0.00 0.00 45 1015.4
20260506222754 63 324 1.7 2.6 0.00 0.00 0.00 45 1015.1
20260506222250 63 248 2.6 3.5 0.00 0.00 0.00 50 1015.4
20260506221748 63 282 3.5 4.3 0.00 0.00 0.00 45 1015.2
20260506221246 62 276 1.7 3.5 0.00 0.00 0.00 49 1015.4
20260506220743 62 165 3.5 4.3 0.00 0.00 0.00 47 1015.3
20260506220238 63 102 1.7 6.1 0.00 0.00 0.00 46 1015.4
20260506215735 63 185 0.9 0.9 0.00 0.00 0.00 51 1015.5
20260506215230 63 267 1.7 2.6 0.00 0.00 0.00 47 1015.3
20260506214727 63 60 2.6 6.1 0.00 0.00 0.00 45 1015.5
20260506214224 62 67 1.7 2.6 0.00 0.00 0.00 46 1015.6
20260506213723 62 284 5.2 7.0 0.00 0.00 0.00 46 1015.6
20260506213220 62 351 2.6 4.3 0.00 0.00 0.00 44 1015.5
20260506212717 61 266 0.9 0.9 0.00 0.00 0.00 46 1015.5
20260506212212 63 81 3.5 4.3 0.00 0.00 0.00 46 1015.5
20260506211708 62 327 0.9 0.9 0.00 0.00 0.00 46 1015.3
20260506211204 63 269 2.6 4.3 0.00 0.00 0.00 47 1015.5
20260506210701 63 121 5.2 7.0 0.00 0.00 0.00 45 1015.7
20260506210158 63 356 3.5 4.3 0.00 0.00 0.00 45 1015.9
20260506205656 62 199 1.7 2.6 0.00 0.00 0.00 47 1015.8
20260506205155 61 167 1.7 2.6 0.00 0.00 0.00 50 1015.8
20260506204653 62 192 3.5 4.3 0.00 0.00 0.00 48 1015.7
20260506204150 62 281 2.6 3.5 0.00 0.00 0.00 48 1015.9
20260506203648 61 83 2.6 4.3 0.00 0.00 0.00 47 1016.2
20260506203145 61 149 1.7 3.5 0.00 0.00 0.00 50 1016.3
20260506202643 62 90 1.7 2.6 0.00 0.00 0.00 49 1016.3
20260506202139 62 138 4.3 6.1 0.00 0.00 0.00 46 1016.5
20260506201636 62 130 5.2 6.1 0.00 0.00 0.00 47 1016.5
20260506201132 60 293 1.7 2.6 0.00 0.00 0.00 57 1016.5
20260506200629 61 350 3.5 4.3 0.00 0.00 0.00 50 1016.6
20260506200126 60 217 5.2 6.1 0.00 0.00 0.00 52 1016.7
20260506195622 60 177 0.9 2.6 0.00 0.00 0.00 51 1016.9
20260506195119 61 80 3.5 6.1 0.00 0.00 0.00 51 1016.7
20260506194616 60 148 5.2 6.1 0.00 0.00 0.00 55 1016.8
20260506194113 60 209 0.0 0.9 0.00 0.00 0.00 54 1016.6
20260506193611 61 76 0.9 0.9 0.00 0.00 0.00 54 1016.8
20260506193108 61 341 2.6 4.3 0.00 0.00 0.00 52 1016.7
20260506192604 62 266 2.6 3.5 0.00 0.00 0.00 51 1016.8
20260506192100 61 287 4.3 6.1 0.00 0.00 0.00 51 1016.7
20260506191557 61 176 6.1 8.7 0.00 0.00 0.00 52 1017.0
20260506191053 61 179 5.2 8.7 0.00 0.00 0.00 50 1017.0
20260506190550 62 299 4.3 6.1 0.00 0.00 0.00 57 1016.8
20260506190047 61 246 1.7 2.6 0.00 0.00 0.00 54 1016.8
20260506185544 61 124 2.6 4.3 0.00 0.00 0.00 62 1016.9
20260506185041 60 74 0.9 0.9 0.00 0.00 0.00 55 1017.1
20260506184538 60 101 4.3 4.3 0.00 0.00 0.00 54 1017.0
20260506184036 59 178 1.7 2.6 0.00 0.00 0.00 54 1017.3
20260506183531 59 286 2.6 3.5 0.00 0.00 0.00 56 1017.1
20260506183028 59 249 2.6 3.5 0.00 0.00 0.00 54 1017.3
20260506182526 59 333 3.5 6.1 0.00 0.00 0.00 58 1017.5
20260506182023 60 308 2.6 3.5 0.00 0.00 0.00 56 1017.5
20260506181521 59 277 0.9 2.6 0.00 0.00 0.00 59 1018.0
20260506181017 59 2 0.9 0.9 0.00 0.00 0.00 58 1018.1
20260506180514 59 255 1.7 2.6 0.00 0.00 0.00 58 1018.0
20260506180010 59 59 0.0 0.9 0.00 0.00 0.00 58 1018.1
20260506175507 58 297 2.6 3.5 0.00 0.00 0.00 59 1018.2
20260506175003 58 299 2.6 3.5 0.00 0.00 0.00 57 1018.3
20260506174502 59 358 3.5 4.3 0.00 0.00 0.00 61 1018.3
20260506173957 58 287 0.9 2.6 0.00 0.00 0.00 57 1018.3
20260506173456 58 168 3.5 3.5 0.00 0.00 0.00 61 1018.2
20260506172952 58 128 4.3 6.1 0.00 0.00 0.00 56 1018.3
20260506172450 59 23 4.3 6.1 0.00 0.00 0.00 59 1018.3
20260506171945 59 166 1.7 2.6 0.00 0.00 0.00 56 1018.2
20260506171443 61 261 3.5 4.3 0.00 0.00 0.00 54 1018.2
20260506170941 60 257 2.6 3.5 0.00 0.00 0.00 55 1018.2
20260506170437 60 185 1.7 2.6 0.00 0.00 0.00 54 1018.3
20260506165936 60 61 1.7 2.6 0.00 0.00 0.00 57 1018.3
20260506165434 58 227 1.7 2.6 0.00 0.00 0.00 58 1018.4
20260506164930 57 86 5.2 6.1 0.00 0.00 0.00 59 1018.4
20260506164427 58 74 4.3 4.3 0.00 0.00 0.00 59 1018.5
20260506163920 58 202 2.6 3.5 0.00 0.00 0.00 57 1018.1
20260506163420 57 347 1.7 2.6 0.00 0.00 0.00 59 1018.1
20260506162915 57 342 3.5 4.3 0.00 0.00 0.00 61 1018.0
20260506162413 57 16 2.6 3.5 0.00 0.00 0.00 59 1018.0
20260506161910 56 97 4.3 4.3 0.00 0.00 0.00 62 1017.8
20260506161408 55 86 2.6 3.5 0.00 0.00 0.00 62 1017.5
20260506160905 56 180 2.6 3.5 0.00 0.00 0.00 66 1017.3
20260506160402 56 93 7.0 8.7 0.00 0.00 0.00 60 1017.1
20260506155900 55 146 1.7 2.6 0.00 0.00 0.00 66 1016.9
20260506155356 55 351 4.3 8.7 0.00 0.00 0.00 63 1017.1
20260506153513 53 207 4.3 6.1 0.00 0.00 0.00 68 1017.3
20260506153011 54 178 2.6 3.5 0.00 0.00 0.00 68 1017.6
20260506152508 53 174 3.5 3.5 0.00 0.00 0.00 71 1017.5
20260506152006 53 340 0.9 2.6 0.00 0.00 0.00 68 1017.4
20260506151503 53 53 2.6 3.5 0.00 0.00 0.00 68 1017.3
20260506151000 52 101 3.5 4.3 0.00 0.00 0.00 69 1017.2
20260506150456 52 133 6.1 7.0 0.00 0.00 0.00 68 1017.2
20260506145953 52 184 5.2 6.1 0.00 0.00 0.00 69 1017.1
20260506145450 52 134 3.5 4.3 0.00 0.00 0.00 70 1017.0
20260506144948 51 197 0.9 2.6 0.00 0.00 0.00 75 1017.0
20260506144444 51 74 3.5 3.5 0.00 0.00 0.00 72 1017.0
20260506143942 51 184 3.5 4.3 0.00 0.00 0.00 73 1017.2
20260506143439 50 119 2.6 3.5 0.00 0.00 0.00 74 1017.0
20260506142937 50 225 6.1 8.7 0.00 0.00 0.00 72 1017.3
20260506142435 50 95 3.5 4.3 0.00 0.00 0.00 77 1017.1
20260506141933 50 72 1.7 2.6 0.00 0.00 0.00 76 1017.2
20260506141430 49 40 0.9 0.9 0.00 0.00 0.00 77 1017.5
20260506140929 50 222 0.9 0.9 0.00 0.00 0.00 78 1017.5
20260506140425 50 244 3.5 6.1 0.00 0.00 0.00 79 1017.5
20260506135922 50 182 1.7 2.6 0.00 0.00 0.00 78 1017.4
20260506135420 49 56 0.9 0.9 0.00 0.00 0.00 79 1017.2
20260506134915 49 159 6.1 8.7 0.00 0.00 0.00 78 1017.5
20260506134412 49 99 1.7 4.3 0.00 0.00 0.00 81 1017.2
20260506133909 48 83 2.6 3.5 0.00 0.00 0.00 80 1017.1
20260506133405 48 53 3.5 4.3 0.00 0.00 0.00 82 1017.5
20260506132902 48 280 1.7 2.6 0.00 0.00 0.00 82 1017.2
20260506132359 48 28 1.7 2.6 0.00 0.00 0.00 82 1017.3
20260506131857 48 321 4.3 6.1 0.00 0.00 0.00 84 1017.2
20260506131353 48 108 3.5 6.1 0.00 0.00 0.00 84 1017.2
20260506130851 48 280 1.7 2.6 0.00 0.00 0.00 84 1017.2
20260506130347 48 296 1.7 2.6 0.00 0.00 0.00 86 1017.2
20260506125845 47 349 0.0 0.9 0.00 0.00 0.00 86 1017.0
20260506125343 47 328 2.6 3.5 0.00 0.00 0.00 87 1016.9
20260506124841 47 21 1.7 2.6 0.00 0.00 0.00 86 1016.6
20260506124337 47 61 4.3 6.1 0.00 0.00 0.00 86 1016.7
20260506123835 47 286 1.7 2.6 0.00 0.00 0.00 86 1016.6
20260506123334 47 117 2.6 4.3 0.00 0.00 0.00 86 1017.0
20260506122830 47 352 1.7 2.6 0.00 0.00 0.00 87 1016.7
20260506122327 47 205 1.7 2.6 0.00 0.00 0.00 87 1016.7
20260506121826 46 274 0.9 2.6 0.00 0.00 0.00 88 1016.6
20260506121322 46 280 2.6 3.5 0.00 0.00 0.00 89 1016.9
20260506120819 46 308 0.0 0.9 0.00 0.00 0.00 89 1017.0
20260506120317 46 201 0.0 0.9 0.00 0.00 0.00 89 1017.1
20260506115814 46 358 0.9 0.9 0.00 0.00 0.00 89 1017.2
20260506115313 46 3 3.5 4.3 0.00 0.00 0.00 89 1016.9
20260506114810 46 123 2.6 3.5 0.00 0.00 0.00 89 1016.7
20260506114308 46 57 2.6 3.5 0.00 0.00 0.00 89 1016.6
20260506113806 46 106 3.5 7.0 0.00 0.00 0.00 89 1016.6
20260506113303 46 216 0.9 0.9 0.00 0.00 0.00 90 1016.6
20260506112800 46 20 0.9 2.6 0.00 0.00 0.00 89 1016.5
20260506112257 46 213 0.9 0.9 0.00 0.00 0.00 90 1016.6
20260506111754 46 275 0.0 0.0 0.00 0.00 0.00 90 1016.5
20260506111252 46 189 0.9 2.6 0.00 0.00 0.00 90 1016.2
20260506110749 46 262 1.7 3.5 0.00 0.00 0.00 89 1016.3
20260506110247 46 301 3.5 3.5 0.00 0.00 0.00 89 1016.1
20260506105743 46 202 0.0 0.9 0.00 0.00 0.00 89 1015.8
20260506105240 46 235 0.9 0.9 0.00 0.00 0.00 89 1015.9
20260506104738 46 214 0.9 0.9 0.00 0.00 0.00 89 1015.7
20260506104235 46 305 0.9 0.9 0.00 0.00 0.00 89 1015.5
20260506103732 46 268 0.0 0.0 0.00 0.00 0.00 89 1015.6
20260506103230 46 301 0.9 0.9 0.00 0.00 0.00 89 1015.6
20260506102727 46 241 0.9 0.9 0.00 0.00 0.00 89 1015.5
20260506102225 46 337 1.7 2.6 0.00 0.00 0.00 88 1015.4
20260506101721 46 308 2.6 3.5 0.00 0.00 0.00 88 1014.9
20260506101218 46 273 0.0 0.0 0.00 0.00 0.00 88 1014.7
20260506100716 46 230 0.9 0.9 0.00 0.00 0.00 88 1014.5
20260506100214 46 254 1.7 2.6 0.00 0.00 0.00 88 1014.5
20260506095712 46 309 1.7 2.6 0.00 0.00 0.00 88 1014.1
20260506095209 46 354 0.9 0.9 0.00 0.00 0.00 88 1014.2
20260506094706 46 233 0.9 0.9 0.00 0.00 0.00 87 1014.2
20260506094204 46 276 2.6 3.5 0.00 0.00 0.00 87 1014.3
20260506093703 46 121 0.9 2.6 0.00 0.00 0.00 88 1014.4
20260506093159 46 208 0.9 0.9 0.00 0.00 0.00 88 1014.2
20260506092657 46 277 0.0 0.0 0.00 0.00 0.00 88 1014.3
20260506092154 46 44 0.9 2.6 0.00 0.00 0.00 88 1014.4
20260506091652 46 286 0.0 0.9 0.00 0.00 0.00 87 1014.1
20260506091149 46 280 0.9 0.9 0.00 0.00 0.00 86 1013.9
20260506090647 46 10 1.7 2.6 0.00 0.00 0.00 86 1013.4
20260506090143 46 65 0.0 0.0 0.00 0.00 0.00 86 1013.4
20260506085640 46 355 2.6 3.5 0.00 0.00 0.00 85 1013.4
20260506085136 46 290 0.0 0.9 0.00 0.00 0.00 85 1013.5
20260506084633 46 197 0.9 0.9 0.00 0.00 0.00 86 1013.3
20260506084130 46 311 0.0 0.9 0.00 0.00 0.00 86 1013.4
20260506083627 47 205 0.9 0.9 0.00 0.00 0.00 87 1013.3
20260506083124 47 203 0.0 0.9 0.00 0.00 0.00 85 1013.5
20260506082621 46 222 0.9 0.9 0.00 0.00 0.00 85 1013.5
20260506082116 47 227 2.6 3.5 0.00 0.00 0.00 85 1013.2
20260506081615 47 226 0.0 0.9 0.00 0.00 0.00 85 1013.3
20260506081112 47 105 1.7 2.6 0.00 0.00 0.00 85 1013.5
20260506080610 47 98 1.7 2.6 0.00 0.00 0.00 85 1013.7
20260506080106 47 275 0.9 0.9 0.00 0.00 0.00 85 1013.2
20260506073049 47 351 2.6 2.6 0.00 0.00 0.00 86 1012.4
20260506072547 47 74 2.6 4.3 0.00 0.00 0.00 85 1012.8
20260506072044 47 58 1.7 2.6 0.00 0.00 0.00 86 1012.7
20260506071542 47 189 2.6 3.5 0.00 0.00 0.00 85 1012.6
20260506071040 47 152 0.9 0.9 0.00 0.00 0.00 86 1012.7
20260506070536 47 211 0.9 0.9 0.00 0.00 0.00 85 1013.0
20260506062514 47 277 2.6 4.3 0.00 0.00 0.00 88 1012.8
20260506062011 47 96 6.1 9.6 0.00 0.00 0.00 90 1012.7
20260506061506 47 322 1.7 4.3 0.00 0.00 0.00 92 1012.7
20260506061004 47 282 0.0 0.9 0.00 0.00 0.00 92 1013.2
20260506060503 46 335 0.9 0.9 0.00 0.00 0.00 93 1013.5
20260506050931 47 260 0.9 0.9 0.00 0.00 0.00 91 1013.7
20260506050429 47 255 0.0 0.0 0.00 0.00 0.00 91 1013.5
20260506044919 47 226 0.0 0.9 0.00 0.85 0.85 91 1013.4
20260506044418 47 271 0.9 0.9 0.00 0.85 0.85 91 1013.2
20260506043914 47 289 0.0 0.0 0.00 0.85 0.85 91 1013.1